HVDC transfer

From www.emi.ea.govt.nz provided by the Electricity Authority (New Zealand)
Run at: 20240505044717

Parameters
Date range,24 Jun 2019 - 24 Jun 2019
Time scale,Trading period
Show,Average flow (MW)

Period start,Period end,Trading period,Direction,Energy transfer (GWh),Peak flow (MW),Average flow (MW)
24/06/2019 00:00:00,24/06/2019 00:30:00,1,Northward at Haywards,0.072,144,144
24/06/2019 00:30:00,24/06/2019 01:00:00,2,Northward at Haywards,0.050,100,100
24/06/2019 01:00:00,24/06/2019 01:30:00,3,Northward at Haywards,0.031,62,62
24/06/2019 01:30:00,24/06/2019 02:00:00,4,Northward at Haywards,0.032,63,63
24/06/2019 02:00:00,24/06/2019 02:30:00,5,Northward at Haywards,0.032,63,63
24/06/2019 02:30:00,24/06/2019 03:00:00,6,Northward at Haywards,0.030,60,60
24/06/2019 03:00:00,24/06/2019 03:30:00,7,Northward at Haywards,0.028,55,55
24/06/2019 03:30:00,24/06/2019 04:00:00,8,Northward at Haywards,0.038,76,76
24/06/2019 04:00:00,24/06/2019 04:30:00,9,Northward at Haywards,0.077,154,154
24/06/2019 04:30:00,24/06/2019 05:00:00,10,Northward at Haywards,0.099,198,198
24/06/2019 05:00:00,24/06/2019 05:30:00,11,Northward at Haywards,0.145,290,290
24/06/2019 05:30:00,24/06/2019 06:00:00,12,Northward at Haywards,0.211,421,421
24/06/2019 06:00:00,24/06/2019 06:30:00,13,Northward at Haywards,0.288,575,575
24/06/2019 06:30:00,24/06/2019 07:00:00,14,Northward at Haywards,0.277,554,554
24/06/2019 07:00:00,24/06/2019 07:30:00,15,Northward at Haywards,0.335,669,669
24/06/2019 07:30:00,24/06/2019 08:00:00,16,Northward at Haywards,0.374,748,748
24/06/2019 08:00:00,24/06/2019 08:30:00,17,Northward at Haywards,0.372,744,744
24/06/2019 08:30:00,24/06/2019 09:00:00,18,Northward at Haywards,0.396,791,791
24/06/2019 09:00:00,24/06/2019 09:30:00,19,Northward at Haywards,0.385,769,769
24/06/2019 09:30:00,24/06/2019 10:00:00,20,Northward at Haywards,0.368,736,736
24/06/2019 10:00:00,24/06/2019 10:30:00,21,Northward at Haywards,0.378,755,755
24/06/2019 10:30:00,24/06/2019 11:00:00,22,Northward at Haywards,0.381,761,761
24/06/2019 11:00:00,24/06/2019 11:30:00,23,Northward at Haywards,0.376,751,751
24/06/2019 11:30:00,24/06/2019 12:00:00,24,Northward at Haywards,0.387,774,774
24/06/2019 12:00:00,24/06/2019 12:30:00,25,Northward at Haywards,0.356,712,712
24/06/2019 12:30:00,24/06/2019 13:00:00,26,Northward at Haywards,0.348,695,695
24/06/2019 13:00:00,24/06/2019 13:30:00,27,Northward at Haywards,0.386,772,772
24/06/2019 13:30:00,24/06/2019 14:00:00,28,Northward at Haywards,0.382,764,764
24/06/2019 14:00:00,24/06/2019 14:30:00,29,Northward at Haywards,0.374,747,747
24/06/2019 14:30:00,24/06/2019 15:00:00,30,Northward at Haywards,0.367,733,733
24/06/2019 15:00:00,24/06/2019 15:30:00,31,Northward at Haywards,0.369,738,738
24/06/2019 15:30:00,24/06/2019 16:00:00,32,Northward at Haywards,0.395,790,790
24/06/2019 16:00:00,24/06/2019 16:30:00,33,Northward at Haywards,0.412,824,824
24/06/2019 16:30:00,24/06/2019 17:00:00,34,Northward at Haywards,0.428,856,856
24/06/2019 17:00:00,24/06/2019 17:30:00,35,Northward at Haywards,0.432,864,864
24/06/2019 17:30:00,24/06/2019 18:00:00,36,Northward at Haywards,0.431,861,861
24/06/2019 18:00:00,24/06/2019 18:30:00,37,Northward at Haywards,0.425,850,850
24/06/2019 18:30:00,24/06/2019 19:00:00,38,Northward at Haywards,0.391,781,781
24/06/2019 19:00:00,24/06/2019 19:30:00,39,Northward at Haywards,0.376,751,751
24/06/2019 19:30:00,24/06/2019 20:00:00,40,Northward at Haywards,0.352,704,704
24/06/2019 20:00:00,24/06/2019 20:30:00,41,Northward at Haywards,0.378,755,755
24/06/2019 20:30:00,24/06/2019 21:00:00,42,Northward at Haywards,0.362,723,723
24/06/2019 21:00:00,24/06/2019 21:30:00,43,Northward at Haywards,0.349,697,697
24/06/2019 21:30:00,24/06/2019 22:00:00,44,Northward at Haywards,0.302,603,603
24/06/2019 22:00:00,24/06/2019 22:30:00,45,Northward at Haywards,0.284,567,567
24/06/2019 22:30:00,24/06/2019 23:00:00,46,Northward at Haywards,0.213,426,426
24/06/2019 23:00:00,24/06/2019 23:30:00,47,Northward at Haywards,0.183,366,366
24/06/2019 23:30:00,25/06/2019 00:00:00,48,Northward at Haywards,0.131,261,261
